When you browse on this site, cookies collect data to enhance your experience and personalize the content and advertising you see.
Visit our Privacy Policy to learn more. By continuing to use the site, you agree to this use of cookies and data.
  • In Spain
  • List of Countries
  • For 7 days
  • Water Temperature
  • Satellite Maps
  • Weather Map
  • Weather Widgets
  • user-avatar
    Login

    Hourly Weather Rehovot

    Today, 23 April, Tuesday

    Time Temperature Precipitation Wind Pressure Humidity
    00:00 +14°C° 0 mm 1 mps 760 mmHg 70%
    01:00 +13°C° 0 mm 1 mps 760 mmHg 70%
    02:00 +13°C° 0 mm 1 mps 760 mmHg 70%
    03:00 +13°C° 0 mm 1 mps 761 mmHg 71%
    04:00 +13°C° 0 mm 1 mps 761 mmHg 71%
    05:00 +13°C° 0 mm 1 mps 761 mmHg 71%
    06:00 +14°C° 0 mm 1 mps 762 mmHg 66%
    07:00 +15°C° 0 mm 1 mps 762 mmHg 61%
    08:00 +18°C° 0 mm 1 mps 762 mmHg 55%
    09:00 +19°C° 0 mm 1 mps 762 mmHg 52%
    10:00 +19°C° 0 mm 2 mps 762 mmHg 48%
    11:00 +20°C° 0 mm 3 mps 763 mmHg 45%
    12:00 +21°C° 0 mm 3 mps 762 mmHg 44%
    13:00 +21°C° 0 mm 4 mps 762 mmHg 44%
    14:00 +22°C° 0 mm 5 mps 762 mmHg 44%
    15:00 +21°C° 0 mm 6 mps 762 mmHg 46%
    16:00 +20°C° 0 mm 6 mps 762 mmHg 48%
    17:00 +20°C° 0 mm 6 mps 762 mmHg 50%
    18:00 +19°C° 0 mm 5 mps 762 mmHg 53%
    19:00 +17°C° 0 mm 5 mps 762 mmHg 55%
    20:00 +17°C° 0 mm 4 mps 762 mmHg 58%
    21:00 +17°C° 0 mm 4 mps 763 mmHg 58%
    22:00 +17°C° 0 mm 4 mps 763 mmHg 58%
    23:00 +15°C° 0 mm 4 mps 763 mmHg 57%

    Tomorrow, 24 April, Wednesday

    Time Temperature Precipitation Wind Pressure Humidity
    00:00 +16°C° 0 mm 3 mps 763 mmHg 57%
    01:00 +16°C° 0 mm 3 mps 763 mmHg 57%
    02:00 +16°C° 0 mm 3 mps 762 mmHg 57%
    03:00 +16°C° 0 mm 3 mps 762 mmHg 57%
    04:00 +16°C° 0 mm 3 mps 762 mmHg 57%
    05:00 +16°C° 0 mm 2 mps 762 mmHg 57%
    06:00 +18°C° 0 mm 3 mps 762 mmHg 52%
    07:00 +20°C° 0 mm 3 mps 763 mmHg 47%
    08:00 +22°C° 0 mm 3 mps 763 mmHg 42%
    09:00 +25°C° 0 mm 3 mps 763 mmHg 37%
    10:00 +26°C° 0 mm 3 mps 763 mmHg 31%
    11:00 +28°C° 0 mm 3 mps 763 mmHg 25%
    12:00 +28°C° 0 mm 4 mps 762 mmHg 25%
    13:00 +29°C° 0 mm 5 mps 762 mmHg 25%
    14:00 +29°C° 0 mm 5 mps 761 mmHg 25%
    15:00 +28°C° 0 mm 6 mps 761 mmHg 30%
    16:00 +27°C° 0 mm 7 mps 761 mmHg 35%
    17:00 +26°C° 0 mm 7 mps 760 mmHg 39%
    18:00 +23°C° 0 mm 6 mps 761 mmHg 42%
    19:00 +22°C° 0 mm 5 mps 761 mmHg 45%
    20:00 +21°C° 0 mm 4 mps 761 mmHg 48%
    21:00 +21°C° 0 mm 4 mps 761 mmHg 48%
    22:00 +21°C° 0 mm 3 mps 761 mmHg 49%
    23:00 +21°C° 0 mm 3 mps 761 mmHg 49%

    Day after tomorrow, 25 April, Thursday

    Time Temperature Precipitation Wind Pressure Humidity
    00:00 +20°C° 0 mm 3 mps 761 mmHg 48%
    01:00 +20°C° 0 mm 3 mps 760 mmHg 48%
    02:00 +20°C° 0 mm 3 mps 760 mmHg 48%
    03:00 +20°C° 0 mm 3 mps 760 mmHg 47%
    04:00 +20°C° 0 mm 3 mps 760 mmHg 46%
    05:00 +19°C° 0 mm 2 mps 760 mmHg 45%
    06:00 +21°C° 0 mm 2 mps 760 mmHg 40%
    07:00 +24°C° 0 mm 2 mps 761 mmHg 36%
    08:00 +26°C° 0 mm 2 mps 761 mmHg 31%
    09:00 +27°C° 0 mm 2 mps 761 mmHg 28%
    10:00 +29°C° 0 mm 3 mps 761 mmHg 25%
    11:00 +30°C° 0 mm 3 mps 761 mmHg 23%
    12:00 +30°C° 0 mm 4 mps 760 mmHg 24%
    13:00 +30°C° 0 mm 5 mps 759 mmHg 25%
    14:00 +32°C° 0 mm 6 mps 759 mmHg 27%
    15:00 +29°C° 0 mm 6 mps 759 mmHg 30%
    16:00 +28°C° 0 mm 6 mps 758 mmHg 33%
    17:00 +27°C° 0 mm 6 mps 758 mmHg 37%
    18:00 +26°C° 0 mm 5 mps 758 mmHg 40%
    19:00 +23°C° 0 mm 5 mps 759 mmHg 42%
    20:00 +22°C° 0 mm 4 mps 759 mmHg 45%
    21:00 +22°C° 0 mm 3 mps 759 mmHg 46%
    22:00 +21°C° 0 mm 3 mps 759 mmHg 46%
    23:00 +21°C° 0 mm 3 mps 759 mmHg 47%

    26 April, Friday

    Time Temperature Precipitation Wind Pressure Humidity
    00:00 +20°C° 0 mm 2 mps 758 mmHg 49%
    01:00 +20°C° 0 mm 2 mps 758 mmHg 52%
    02:00 +19°C° 0 mm 2 mps 758 mmHg 54%
    03:00 +19°C° 0 mm 2 mps 758 mmHg 55%
    04:00 +20°C° 0 mm 1 mps 758 mmHg 56%
    05:00 +20°C° 0 mm 1 mps 757 mmHg 57%
    06:00 +21°C° 0 mm 1 mps 758 mmHg 52%
    07:00 +23°C° 0 mm 1 mps 758 mmHg 47%
    08:00 +24°C° 0 mm 1 mps 758 mmHg 42%
    09:00 +26°C° 0 mm 2 mps 758 mmHg 40%
    10:00 +27°C° 0 mm 3 mps 758 mmHg 37%
    11:00 +28°C° 0 mm 3 mps 758 mmHg 34%
    12:00 +28°C° 0 mm 4 mps 758 mmHg 36%
    13:00 +28°C° 0 mm 5 mps 757 mmHg 38%
    14:00 +27°C° 0 mm 5 mps 757 mmHg 40%
    15:00 +26°C° 0 mm 5 mps 756 mmHg 41%
    16:00 +25°C° 0 mm 4 mps 756 mmHg 42%
    17:00 +25°C° 0 mm 3 mps 756 mmHg 43%
    18:00 +24°C° 0 mm 2 mps 757 mmHg 47%
    19:00 +23°C° 0 mm 1 mps 757 mmHg 51%
    20:00 +22°C° 0 mm 1 mps 757 mmHg 55%
    21:00 +22°C° 0 mm 1 mps 757 mmHg 54%
    22:00 +21°C° 0 mm 1 mps 757 mmHg 53%
    23:00 +21°C° 0 mm 1 mps 756 mmHg 52%

    27 April, Saturday

    Time Temperature Precipitation Wind Pressure Humidity
    00:00 +21°C° 0 mm 1 mps 756 mmHg 56%
    01:00 +20°C° 0 mm 1 mps 756 mmHg 59%
    02:00 +20°C° 0 mm 1 mps 756 mmHg 62%
    03:00 +19°C° 0 mm 1 mps 756 mmHg 61%
    04:00 +19°C° 0 mm 1 mps 756 mmHg 60%
    05:00 +19°C° 0 mm 1 mps 756 mmHg 58%
    06:00 +21°C° 0 mm 1 mps 756 mmHg 52%
    07:00 +22°C° 0 mm 1 mps 756 mmHg 45%
    08:00 +24°C° 0 mm 1 mps 756 mmHg 39%
    09:00 +25°C° 0 mm 2 mps 756 mmHg 39%
    10:00 +26°C° 0 mm 3 mps 756 mmHg 38%
    11:00 +27°C° 0 mm 4 mps 756 mmHg 37%
    12:00 +27°C° 0 mm 4 mps 756 mmHg 40%
    13:00 +27°C° 0 mm 4 mps 755 mmHg 42%
    14:00 +26°C° 0 mm 4 mps 755 mmHg 44%
    15:00 +26°C° 0 mm 4 mps 755 mmHg 47%
    16:00 +25°C° 0 mm 3 mps 755 mmHg 49%
    17:00 +24°C° 0 mm 3 mps 755 mmHg 52%
    18:00 +23°C° 0 mm 2 mps 755 mmHg 57%
    19:00 +22°C° 0 mm 1 mps 756 mmHg 62%
    20:00 +19°C° 0 mm 0 mps 756 mmHg 67%
    21:00 +19°C° 0 mm 0 mps 756 mmHg 66%
    22:00 +19°C° 0 mm 0 mps 756 mmHg 66%
    23:00 +19°C° 0 mm 0 mps 756 mmHg 65%

    28 April, Sunday

    Time Temperature Precipitation Wind Pressure Humidity
    00:00 +18°C° 0 mm 0 mps 756 mmHg 65%
    01:00 +18°C° 0 mm 0 mps 755 mmHg 66%
    02:00 +18°C° 0 mm 0 mps 755 mmHg 66%
    03:00 +17°C° 0 mm 0 mps 755 mmHg 66%
    04:00 +17°C° 0 mm 0 mps 755 mmHg 66%
    05:00 +17°C° 0 mm 0 mps 755 mmHg 66%
    06:00 +19°C° 0 mm 0 mps 756 mmHg 59%
    07:00 +21°C° 0 mm 0 mps 756 mmHg 53%
    08:00 +22°C° 0 mm 0 mps 756 mmHg 46%
    09:00 +25°C° 0 mm 1 mps 756 mmHg 43%
    10:00 +27°C° 0 mm 2 mps 756 mmHg 40%
    11:00 +28°C° 0 mm 3 mps 756 mmHg 37%
    12:00 +28°C° 0 mm 3 mps 755 mmHg 37%
    13:00 +28°C° 0 mm 4 mps 755 mmHg 36%
    14:00 +28°C° 0 mm 5 mps 755 mmHg 36%
    15:00 +28°C° 0 mm 4 mps 755 mmHg 39%
    16:00 +27°C° 0 mm 4 mps 755 mmHg 41%
    17:00 +26°C° 0 mm 4 mps 755 mmHg 43%
    18:00 +25°C° 0 mm 3 mps 755 mmHg 47%
    19:00 +24°C° 0 mm 3 mps 755 mmHg 51%
    20:00 +23°C° 0 mm 2 mps 756 mmHg 55%
    21:00 +21°C° 0 mm 2 mps 756 mmHg 56%
    22:00 +22°C° 0 mm 1 mps 756 mmHg 57%
    23:00 +22°C° 0 mm 1 mps 756 mmHg 58%
    Show more